Three Rivers, MI

4:54 PM EST on February 24, 2017 (GMT -0500)
Three Rivers Municipal-Haines

Weather History for KHAI - January, 2012

Change the Weather History Date:

Monday, January 16, 2012

  Actual Average Record
Temperature  
Mean Temperature 32 °F -  
Max Temperature 41 °F 30 °F 56 °F (1953)
Min Temperature 23 °F 12 °F -18 °F (1972)
Degree Days  
Heating Degree Days 33    
Moisture  
Dew Point 27 °F    
Average Humidity 84    
Maximum Humidity 100    
Minimum Humidity 70    
Precipitation  
Precipitation 0.00 in - - ()
Sea Level Pressure  
Sea Level Pressure 29.93 in    
Wind  
Wind Speed 9 mph (South)    
Max Wind Speed 16 mph    
Max Gust Speed 22 mph    
Visibility 9 miles    
Events Rain    
Averages and records for this station are not official NWS values.
T = Trace of Precipitation, MM = Missing Value Source: NWS Daily Summary

Daily Weather History Graph

Daily Weather History Graph

Search for Another Location

Airport or City:

Trip Planner

Search our weather history database for the weather conditions in past years. The results will help you decide how hot, cold, wet, or windy it might be!

Date:

Astronomy

Jan. 16, 2012 Rise Set
Actual Time 8:07 AM EST 5:36 PM EST
Civil Twilight 7:36 AM EST 6:07 PM EST
Nautical Twilight 7:02 AM EST 6:42 PM EST
Astronomical Twilight 6:28 AM EST 7:15 PM EST
Moon 1:13 AM EST (1/16) 11:51 AM EST (1/16)
Length of Visible Light 10h 30m
Length of Day
9h 29m
Waning Gibbous, 46% of the Moon is Illuminated
Jan 16
Waning Gibbous
Jan 23
New
Jan 30
First Quarter
Feb 7
Full
Feb 14
Last Quarter

Hourly Weather History & Observations

Time (EST) Temp. Windchill Dew Point Humidity Pressure Visibility Wind Dir Wind Speed Gust Speed Precip Events Conditions
12:35 AM 23.0 °F 13.1 °F 17.6 °F 80% 30.15 in 10.0 mi SE 9.2 mph - N/A   Clear
12:54 AM 23.0 °F 13.1 °F 15.8 °F 74% 30.15 in 10.0 mi SSE 9.2 mph - N/A   Clear
1:15 AM 23.0 °F 13.1 °F 17.6 °F 80% 30.14 in 10.0 mi SSE 9.2 mph - N/A   Clear
1:34 AM 23.0 °F 14.7 °F 17.6 °F 80% 30.13 in 10.0 mi SSE 6.9 mph - N/A   Clear
1:54 AM 23.0 °F 15.8 °F 17.6 °F 80% 30.12 in 10.0 mi SSE 5.8 mph - N/A   Clear
2:14 AM 23.0 °F 15.8 °F 17.6 °F 80% 30.12 in 10.0 mi SSE 5.8 mph - N/A   Clear
2:34 AM 23.0 °F 13.9 °F 17.6 °F 80% 30.10 in 10.0 mi SSE 8.1 mph - N/A   Clear
2:55 AM 23.0 °F 12.4 °F 19.4 °F 86% 30.10 in 10.0 mi SSE 10.4 mph 16.1 mph N/A   Clear
3:14 AM 23.0 °F 12.4 °F 19.4 °F 86% 30.09 in 10.0 mi South 10.4 mph - N/A   Clear
3:34 AM 24.8 °F 15.3 °F 19.4 °F 80% 30.07 in 10.0 mi SSE 9.2 mph - N/A   Clear
3:55 AM 24.8 °F 15.3 °F 19.4 °F 80% 30.06 in 10.0 mi South 9.2 mph 16.1 mph N/A   Clear
4:15 AM 24.8 °F 15.3 °F 21.2 °F 86% 30.05 in 10.0 mi SSE 9.2 mph - N/A   Clear
4:35 AM 24.8 °F 15.3 °F 21.2 °F 86% 30.04 in 10.0 mi South 9.2 mph - N/A   Clear
4:55 AM 24.8 °F 15.3 °F 21.2 °F 86% 30.02 in 10.0 mi SSE 9.2 mph - N/A   Clear
5:14 AM 24.8 °F 15.3 °F 21.2 °F 86% 30.01 in 10.0 mi SSE 9.2 mph - N/A   Clear
5:35 AM 24.8 °F 14.6 °F 21.2 °F 86% 29.99 in 10.0 mi SSE 10.4 mph - N/A   Clear
5:55 AM 26.6 °F 16.8 °F 21.2 °F 80% 29.98 in 10.0 mi SSE 10.4 mph - N/A   Clear
6:14 AM 26.6 °F 16.8 °F 21.2 °F 80% 29.97 in 10.0 mi SSE 10.4 mph - N/A   Clear
6:35 AM 26.6 °F 17.5 °F 23.0 °F 86% 29.97 in 10.0 mi SSE 9.2 mph - N/A   Clear
6:55 AM 26.6 °F 17.5 °F 23.0 °F 86% 29.96 in 10.0 mi South 9.2 mph - N/A   Clear
7:14 AM 26.6 °F 17.5 °F 23.0 °F 86% 29.95 in 10.0 mi South 9.2 mph - N/A   Clear
7:35 AM 26.6 °F 18.2 °F 23.0 °F 86% 29.95 in 10.0 mi South 8.1 mph - N/A   Clear
7:55 AM 26.6 °F 18.2 °F 23.0 °F 86% 29.95 in 10.0 mi South 8.1 mph - N/A   Clear
8:14 AM 26.6 °F 19.1 °F 23.0 °F 86% 29.94 in 10.0 mi South 6.9 mph - N/A   Clear
8:35 AM 28.4 °F 19.7 °F 24.8 °F 86% 29.94 in 10.0 mi South 9.2 mph - N/A   Clear
8:54 AM 28.4 °F 19.7 °F 24.8 °F 86% 29.93 in 10.0 mi South 9.2 mph - N/A   Clear
9:15 AM 30.2 °F 21.3 °F 26.6 °F 86% 29.93 in 10.0 mi South 10.4 mph - N/A   Clear
9:34 AM 32.0 °F 23.6 °F 26.6 °F 80% 29.92 in 10.0 mi South 10.4 mph - N/A   Clear
9:55 AM 32.0 °F 23.0 °F 28.4 °F 87% 29.92 in 10.0 mi South 11.5 mph - N/A   Clear
10:15 AM 32.0 °F 23.0 °F 28.4 °F 87% 29.92 in 10.0 mi South 11.5 mph - N/A   Clear
10:34 AM 33.8 °F 24.3 °F 30.2 °F 87% 29.91 in 10.0 mi South 13.8 mph - N/A   Clear
10:55 AM 35.6 °F 28.0 °F 30.2 °F 81% 29.91 in 10.0 mi South 10.4 mph - N/A   Clear
11:14 AM 37.4 °F 29.8 °F 32.0 °F 81% 29.91 in 10.0 mi SSW 11.5 mph 16.1 mph N/A   Clear
11:35 AM 39.2 °F 31.6 °F 32.0 °F 75% 29.90 in 10.0 mi SSW 12.7 mph 19.6 mph N/A   Clear
11:55 AM 41.0 °F 32.8 °F 32.0 °F 70% 29.89 in 10.0 mi SSW 16.1 mph - N/A   Clear
12:14 PM 41.0 °F 33.5 °F 32.0 °F 70% 29.87 in 10.0 mi SSW 13.8 mph 19.6 mph N/A   Clear
12:35 PM 41.0 °F 32.8 °F 33.8 °F 76% 29.85 in 10.0 mi SSW 16.1 mph 21.9 mph N/A   Clear
12:55 PM 41.0 °F 33.5 °F 33.8 °F 76% 29.84 in 10.0 mi SSW 13.8 mph - N/A   Clear
1:14 PM 41.0 °F 33.9 °F 33.8 °F 76% 29.82 in 10.0 mi SSW 12.7 mph 17.3 mph N/A   Clear
1:35 PM 41.0 °F 33.9 °F 33.8 °F 76% 29.82 in 10.0 mi SSW 12.7 mph - N/A   Mostly Cloudy
1:55 PM 41.0 °F 34.3 °F 33.8 °F 76% 29.82 in 10.0 mi SSW 11.5 mph - N/A   Overcast
2:14 PM 39.2 °F 32.0 °F 33.8 °F 81% 29.81 in 10.0 mi SSW 11.5 mph - N/A   Overcast
2:35 PM 39.2 °F 32.5 °F 33.8 °F 81% 29.80 in 10.0 mi SSW 10.4 mph - N/A   Overcast
3:15 PM 39.2 °F 33.6 °F 33.8 °F 81% 29.79 in 10.0 mi South 8.1 mph - N/A   Overcast
3:35 PM 39.2 °F 34.2 °F 33.8 °F 81% 29.78 in 10.0 mi South 6.9 mph - N/A   Overcast
3:55 PM 39.2 °F 33.6 °F 35.6 °F 87% 29.78 in 10.0 mi South 8.1 mph - N/A   Overcast
4:15 PM 39.2 °F 34.2 °F 35.6 °F 87% 29.78 in 10.0 mi South 6.9 mph - N/A   Overcast
4:35 PM 37.4 °F 31.4 °F 35.6 °F 93% 29.78 in 7.0 mi South 8.1 mph - N/A   Overcast
4:54 PM 37.4 °F 32.1 °F 35.6 °F 93% 29.79 in 4.0 mi South 6.9 mph - N/A   Drizzle
5:15 PM 37.4 °F 30.8 °F 35.6 °F 93% 29.79 in 3.0 mi South 9.2 mph - N/A   Drizzle
5:35 PM 37.4 °F 32.1 °F 35.6 °F 93% 29.78 in 4.0 mi South 6.9 mph - N/A Rain Heavy Rain
5:54 PM 37.4 °F 32.1 °F 35.6 °F 93% 29.78 in 4.0 mi South 6.9 mph - N/A Rain Rain
6:15 PM 37.4 °F 32.8 °F 35.6 °F 93% 29.77 in 5.0 mi South 5.8 mph - N/A   Light Drizzle
6:35 PM 37.4 °F 33.8 °F 37.4 °F 100% 29.77 in 7.0 mi South 4.6 mph - N/A   Overcast
6:54 PM 37.4 °F 32.8 °F 37.4 °F 100% 29.77 in 7.0 mi South 5.8 mph - N/A   Overcast
7:15 PM 37.4 °F 32.1 °F 37.4 °F 100% 29.77 in 7.0 mi South 6.9 mph - N/A   Overcast
7:34 PM 37.4 °F 32.1 °F 37.4 °F 100% 29.77 in 7.0 mi South 6.9 mph - N/A   Overcast
7:55 PM 37.4 °F 33.8 °F 37.4 °F 100% 29.77 in 7.0 mi South 4.6 mph - N/A   Overcast
8:15 PM 37.4 °F 32.8 °F 37.4 °F 100% 29.77 in 7.0 mi South 5.8 mph - N/A   Overcast
8:34 PM 37.4 °F 32.1 °F 37.4 °F 100% 29.77 in 7.0 mi South 6.9 mph - N/A   Overcast
9:15 PM 39.2 °F 33.6 °F 37.4 °F 93% 29.76 in 7.0 mi South 8.1 mph - N/A   Overcast
9:55 PM 39.2 °F 33.6 °F 39.2 °F 100% 29.76 in 5.0 mi South 8.1 mph - N/A   Drizzle
10:15 PM 39.2 °F 35.9 °F 39.2 °F 100% 29.75 in 3.0 mi SSW 4.6 mph - N/A Rain Light Rain
10:34 PM 41.0 °F 39.0 °F 41.0 °F 100% 29.75 in 2.5 mi South 3.5 mph - N/A Rain Light Rain
10:55 PM 41.0 °F - 41.0 °F 100% 29.75 in 1.5 mi Calm Calm - N/A Rain Heavy Rain
11:15 PM 41.0 °F - 41.0 °F 100% 29.74 in 1.8 mi Calm Calm - N/A   Overcast
11:34 PM 39.2 °F - 39.2 °F 100% 29.74 in 0.5 mi Calm Calm - N/A Rain Light Rain
11:55 PM 37.4 °F 32.8 °F 37.4 °F 100% 29.72 in 0.2 mi ESE 5.8 mph - N/A Fog Fog